Location: Buchberg
(46.9333°N, 15.8500°E)
Time: 09:46:16
(UTC+00:00)

SL-16 R/B - Pass Details

Date: 14 July 2020
Orbit: 985 x 1006 km, 99.5° (Epoch: 08 August)

Event Time Altitude Azimuth Distance (km) Brightness Sun altitude
Exits shadow 01:57:01 14° 227° (SW) 2,497 4.0 -11.0°
Maximum altitude 02:00:41 22° 269° (W) 2,018 3.8 -10.6°
Drops below altitude 10° 02:05:28 10° 319° (NW) 2,790 5.0 -10.0°
Sets 02:08:36 0° 334° (NNW) 3,746 5.8 -9.6°
